Weather in Bechar

Algeria     31°36′41″N   2°16′45″W
temp.,
°C
wind,
m/s
gust,
m/s
humid.,
%
clouds,
%
prec.,
mm/h
press.,
hPa
HPBL,
m
23 october, sat
sat2301:00+20s222484 0.0 101522
04:00+18sw11302 0.0 101411
07:00+16ssw11343 0.0 101511
10:00+21sw11255 0.0 1016382
13:00+25sw34195 0.0 10151493
16:00+27wsw45200 0.0 10132456
19:00+23nnw33270 0.0 101529
22:00+21nne22340 0.0 101711
24 october, sun
sun2401:00+20e22360 0.0 101715
04:00+18e45440 0.0 101763
07:00+16ene23490 0.0 101918
10:00+20e35365 0.0 1021549
13:00+24se43265 0.0 10191394
16:00+26ssw23220 0.0 10161977
19:00+23sw33270 0.0 101720
22:00+21e22300 0.0 101811
25 october, mon
mon2501:00+20se223322 0.0 101911
04:00+19ese333456 0.0 101814
07:00+17e4539100 0.0 101958
10:00+20ese5633100 0.0 1020425
13:00+24sse562469 0.0 10181132
16:00+26sw452198 0.0 10151756
19:00+24se442490 0.0 101539
22:00+22se462762 0.0 101786
26 october, tue
tue2601:00+20se33325 0.0 101727
04:00+18ese33355 0.0 101724
07:00+17ese33385 0.0 101725
10:00+21sse57295 0.0 1018540
13:00+26ssw67212 0.0 10161582
16:00+28s56180 0.0 10133070
19:00+24se572216 0.0 101376
22:00+21se6112834 0.1 1015214
27 october, wed
wed2701:00+17n564743 0.7 101791
04:00+16ene56553 0.5 101687
07:00+16ene47520 0.5 1016114
10:00+19e77372 0.1 1018532
13:00+24se55250 0.1 10161425
16:00+26s34200 0.0 10132259
19:00+22ene22243 0.0 101412
22:00+20ene33295 0.0 101622